This demonstration page uses our WeatherBlox Daily Observations layout. Learn more.

Hourly Observations for October 17, 2020

Temp ( °F °C ) Dew Point ( °F °C ) Humidity (%) Winds ( mph kmh ) Pressure ( in mb ) Visibility ( mi km ) Precip ( " mm )
12:54 am 00:54 Mostly Cloudy 56 13.3 28 -2.2 34 34 S 21 33 29.84 1011 10 16.0934 0 0
1:54 am 01:54 Clear 56 13.3 28 -2.2 34 34 S 18 30 29.81 1009 10 16.0934 0 0
2:54 am 02:54 Clear 58 14.4 28 -2.2 32 32 SSW 23 37 29.77 1008 10 16.0934 0 0
3:54 am 03:54 Clear 56 13.3 28 -2.2 34 34 SSW 18 30 29.77 1008 10 16.0934 0 0
4:54 am 04:54 Clear 55 12.8 28 -2.2 35 35 SSW 17 28 29.75 1008 10 16.0934 0 0
5:54 am 05:54 Clear 55 12.8 28 -2.2 35 35 SSW 14 22 29.76 1008 10 16.0934 0 0
6:54 am 06:54 Clear 55 12.8 29 -1.7 37 37 SSW 14 22 29.76 1008 10 16.0934 0 0
7:54 am 07:54 Sunny 55 12.8 29 -1.7 37 37 SSW 13 20 29.78 1008 10 16.0934 0 0
8:54 am 08:54 Sunny 56 13.3 30 -1.1 37 37 SSW 12 19 29.79 1009 10 16.0934 0 0
9:54 am 09:54 Sunny 57 13.9 30 -1.1 36 36 SSW 15 24 29.79 1009 10 16.0934 0 0
10:54 am 10:54 Sunny 59 15 31 -0.6 35 35 SSW 16 26 29.8 1009 10 16.0934 0 0
11:54 am 11:54 Sunny 61 16.1 31 -0.6 32 32 SW 16 26 29.81 1010 10 16.0934 0 0
12:54 pm 12:54 Sunny 65 18.3 31 -0.6 28 28 SW 13 20 29.8 1009 10 16.0934 0 0
1:54 pm 13:54 Sunny 68 20 31 -0.6 25 25 W 7 11 29.79 1009 10 16.0934 0 0
2:54 pm 14:54 Sunny 70 21.1 34 1.1 27 27 VRB 5 7 29.78 1008 10 16.0934 0 0
3:54 pm 15:54 Sunny 71 21.7 36 2.2 28 28 NW 10 17 29.78 1009 10 16.0934 0 0
4:54 pm 16:54 Sunny 69 20.6 38 3.3 32 32 N 9 15 29.8 1009 10 16.0934 0 0
5:54 pm 17:54 Cloudy 67 19.4 42 5.6 41 41 N 15 24 29.82 1010 10 16.0934 0 0
6:54 pm 18:54 Clear 60 15.6 41 5 50 50 N 18 30 29.88 1012 10 16.0934 0 0
7:54 pm 19:54 Clear 54 12.2 35 1.7 49 49 N 20 31 29.95 1014 10 16.0934 0 0
8:54 pm 20:54 Clear 50 10 34 1.1 54 54 N 17 28 29.98 1015 10 16.0934 0 0
9:54 pm 21:54 Mostly Clear 47 8.3 34 1.1 61 61 N 14 22 30 1016 10 16.0934 0 0
10:54 pm 22:54 Mostly Clear 44 6.7 34 1.1 68 68 N 14 22 30.05 1018 10 16.0934 0 0
11:54 pm 23:54 Partly Cloudy 44 6.7 34 1.1 68 68 N 16 26 30.06 1018 10 16.0934 0 0

Powered by AerisWeather